Location: De Har
(53.3413°N, 6.6858°E)
Time: 20:47:24
(UTC+00:00)

Cosmos 2266 Rocket - Pass Details

Date: 22 April 2026
Orbit: 932 x 1008 km, 82.9° (Epoch: 21 May)

Event Time Altitude Azimuth Distance (km) Brightness Sun altitude
Rises 01:25:33 0° 349° (N) 3,658 7.8 -20.1°
Reaches altitude 10° 01:28:05 10° 352° (N) 2,698 7.0 -20.0°
Maximum altitude 01:34:15 75° 78° (ENE) 980 4.1 -19.5°
Enters shadow 01:39:08 16° 162° (SSE) 2,218 5.5 -19.1°
